EW6790 Weather Reports


time (UTC)temp
F
wind
direction
speed
knots
gust
knots
rain 1hr
in
rain 24hr
in
rain mn
in
humidity
%
barometer
mb
20260905230018 80 101 3.5 8.7 0.00 0.00 0.00 86 1012.6
20260905224619 80 94 6.1 8.7 0.00 0.00 0.00 85 1012.5
20260905223059 80 113 3.5 7.0 0.00 0.00 0.00 86 1012.6
20260905221603 80 115 3.5 7.8 0.00 0.00 0.00 86 1012.3
20260905220041 80 137 5.2 9.6 0.00 0.00 0.00 86 1012.0
20260905214540 81 103 4.3 9.6 0.00 0.00 0.00 86 1011.8
20260905213025 81 96 5.2 9.6 0.00 0.00 0.00 86 1011.9
20260905211524 81 122 2.6 8.7 0.00 0.00 0.00 86 1012.4
20260905210023 81 99 4.3 7.8 0.00 0.00 0.00 86 1012.6
20260905204525 81 102 3.5 6.1 0.00 0.00 0.00 85 1012.6
20260905203023 81 92 1.7 7.8 0.00 0.00 0.00 84 1012.9
20260905200024 80 98 2.6 7.0 0.00 0.00 0.00 86 1012.3
20260905194516 78 95 0.0 8.7 0.00 0.00 0.00 87 1012.4
20260905193013 78 95 7.0 15.6 0.00 0.00 0.00 87 1012.0
20260905190011 77 82 11.3 18.2 0.00 0.00 0.00 87 1011.5
20260905184519 77 82 11.3 17.4 0.00 0.00 0.00 87 1012.1
20260905183006 76 209 4.3 16.5 0.00 0.00 0.00 87 1012.5
20260905180044 75 74 12.2 15.6 0.00 0.00 0.00 85 1012.8
20260905174540 75 63 8.7 13.0 0.00 0.00 0.00 83 1013.3
20260905173015 74 100 7.8 11.3 0.00 0.00 0.00 70 1013.8
20260905171514 73 94 7.0 10.4 0.00 0.00 0.00 64 1014.1
20260905170100 73 94 5.2 8.7 0.00 0.00 0.00 66 1014.4
20260905164555 72 60 4.3 6.1 0.00 0.00 0.00 65 1014.6
20260905163039 72 70 2.6 4.3 0.00 0.00 0.00 67 1015.1
20260905161536 72 87 0.0 0.9 0.00 0.00 0.00 64 1015.3
20260905160021 72 322 0.0 1.7 0.00 0.00 0.00 57 1015.3
20260905154518 71 286 0.0 4.3 0.00 0.00 0.00 54 1015.5
20260905153006 71 290 3.5 7.8 0.00 0.00 0.00 58 1015.6
20260905151508 71 311 0.0 0.0 0.00 0.00 0.00 58 1014.7
20260905150004 71 307 0.0 0.9 0.00 0.00 0.00 53 1014.8
20260905144511 71 307 0.0 0.9 0.00 0.00 0.00 51 1014.6
20260905143059 70 105 0.0 5.2 0.00 0.00 0.00 50 1014.2
20260905141609 70 83 0.9 4.3 0.00 0.00 0.00 50 1014.0
20260905140103 70 64 1.7 4.3 0.00 0.00 0.00 49 1013.6
20260905134555 70 345 0.0 0.0 0.00 0.00 0.00 48 1013.7
20260905133042 70 345 0.0 0.0 0.00 0.00 0.00 48 1013.6
20260905131542 70 345 0.0 0.0 0.00 0.00 0.00 48 1013.5
20260905130041 0 0.0 0.0 0.00 0.00 0.00 1013.5
20260905124536 0 0.0 0.0 0.00 0.00 0.00 1013.1
20260905123030 0 0.0 0.0 0.00 0.00 0.00 1012.7
20260905121525 0 0.0 0.0 0.00 0.00 0.00 1012.4
20260905120023 0 0.0 0.0 0.00 0.00 0.00 1012.1
20260905114518 0 0.0 0.0 0.00 0.00 0.00 1011.9
20260905113055 0 0.0 0.0 0.00 0.00 0.00 1011.7
20260905111550 0 0.0 0.0 0.00 0.00 0.00 1012.0
20260905110029 0 0.0 0.0 0.00 0.00 0.00 1011.9
20260905104533 0 0.0 0.0 0.00 0.00 0.00 1011.7
20260905103003 0 0.0 0.0 0.00 0.00 0.00 1011.8
20260905101559 0 0.0 0.0 0.00 0.00 0.00 1011.9
20260905100046 0 0.0 0.0 0.00 0.00 0.00 1011.8
20260905094538 0 0.0 0.0 0.00 0.00 0.00 1011.9
20260905093039 70 70 2.6 4.3 0.00 0.00 0.00 46 1011.5
20260905091535 71 70 2.6 3.5 0.00 0.00 0.00 46 1011.2
20260905090033 71 71 2.6 4.3 0.00 0.00 0.00 47 1011.0
20260905084530 71 80 2.6 4.3 0.00 0.00 0.00 48 1011.4
20260905083034 71 74 1.7 4.3 0.00 0.00 0.00 50 1011.6
20260905081528 71 60 2.6 4.3 0.00 0.00 0.00 53 1011.7
20260905080008 72 58 0.9 3.5 0.00 0.00 0.00 54 1011.6
20260905074506 72 66 0.0 0.9 0.00 0.00 0.00 57 1011.6
20260905073046 73 65 0.0 3.5 0.00 0.00 0.00 57 1011.6
20260905071543 73 73 0.0 2.6 0.00 0.00 0.00 57 1011.5
20260905070025 73 53 1.7 3.5 0.00 0.00 0.00 59 1011.5
20260905064524 74 71 3.5 5.2 0.00 0.00 0.00 60 1011.4
20260905063005 74 82 2.6 4.3 0.00 0.00 0.00 60 1011.4
20260905061504 74 85 3.5 4.3 0.00 0.00 0.00 65 1011.2
20260905060049 75 68 3.5 6.1 0.00 0.00 0.00 68 1011.3
20260905054543 75 85 4.3 6.1 0.00 0.00 0.00 70 1011.2
20260905053022 75 60 3.5 5.2 0.00 0.00 0.00 71 1011.0
20260905051528 76 66 4.3 6.1 0.00 0.00 0.00 75 1010.9
20260905050006 76 70 4.3 6.1 0.00 0.00 0.00 77 1010.9
20260905044506 76 73 4.3 7.0 0.00 0.00 0.00 79 1010.9
20260905043002 77 67 4.3 7.0 0.00 0.00 0.00 77 1010.9
20260905041503 77 71 3.5 6.1 0.00 0.00 0.00 75 1010.9
20260905040104 77 55 3.5 7.0 0.00 0.00 0.00 76 1011.0
20260905034600 77 63 0.0 2.6 0.00 0.00 0.00 76 1011.0
20260905033102 78 56 2.6 5.2 0.00 0.00 0.00 75 1010.8
20260905031604 78 70 0.9 2.6 0.00 0.00 0.00 77 1010.9
20260905030035 79 62 0.0 1.7 0.00 0.00 0.00 78 1010.9
20260905024539 79 71 0.0 1.7 0.00 0.00 0.00 80 1010.6
20260905023014 80 66 0.0 2.6 0.00 0.00 0.00 80 1010.5
20260905021508 81 82 0.0 3.5 0.00 0.00 0.00 83 1010.3
20260905020051 81 70 0.0 0.9 0.00 0.00 0.00 85 1010.3
20260905014548 82 70 0.0 1.7 0.00 0.00 0.00 86 1010.0
20260905013026 83 88 0.0 0.9 0.00 0.00 0.00 86 1009.8
20260905011527 85 88 0.0 0.0 0.00 0.00 0.00 84 1009.6
20260905010000 86 88 0.9 2.6 0.00 0.00 0.00 83 1009.3
20260905004557 87 121 0.0 0.0 0.00 0.00 0.00 80 1009.3
20260905003038 89 120 0.0 0.0 0.00 0.00 0.00 78 1009.3
20260905001539 90 65 0.0 0.0 0.00 0.00 0.00 76 1009.2
20260905000031 96 340 0.0 0.0 0.00 0.00 0.00 68 1009.1
20260904234518 97 340 0.0 0.0 0.00 0.00 0.00 65 1009.1
20260904233120 98 339 0.0 0.0 0.00 0.00 0.00 63 1009.1
20260904231557 95 340 0.0 0.9 0.00 0.00 0.00 67 1009.1
20260904230108 95 28 0.0 1.7 0.00 0.00 0.00 66 1009.0